Regional Weather Roundup
Issued by NWS

Home | Current Version | Previous Version | Text Only | Print | Product List | Glossary On
Versions: 1 2 3 4 5 6 7 8 9 10 11 12 13 14 15 16 17 18 19 20 21 22 23 24 25 26 27 28 29 30 31 32 33 34 35 36 37 38 39 40 41 42 43 44 45 46 47 48 49 50
000
ASUS43 KLSX 292207
RWRMO

WEATHER SUMMARY FOR MISSOURI
NATIONAL WEATHER SERVICE SPRINGFIELD MO
500 PM CDT SUN MAR 29 2015

NOTE: "FAIR" INDICATES FEW OR NO CLOUDS BELOW 12,000 FEET WITH NO
       SIGNIFICANT WEATHER AND/OR OBSTRUCTIONS TO VISIBILITY.
       CURRENT SKY AND/OR WEATHER CONDITIONS ARE NOT AVAILABLE FOR
       CHILLICOTHE AND FARMINGTON.

MOZ001>031-035>038-043-044-053-054-292300-
...NORTHERN AND WESTERN MISSOURI...

CITY           SKY/WX    TMP DP  RH WIND       PRES   REMARKS
KANSAS CTY INT MOSUNNY   65  42  43 NW20G28   30.00R
KANSAS C DTWN  MOSUNNY   68  40  35 NW15G25   29.98R
LEE`S SUMMIT   CLOUDY    67  40  37 NW18G28   29.99R
ST JOSEPH      SUNNY     62  40  44 NW22      30.02R
CHILLICOTHE      N/A     64  42  44 NW16G30   29.96R
KIRKSVILLE     LGT RAIN  62  40  44 NW23G33   29.92R

$$
MOZ066>068-077>081-088>096-101>105-292300-
...SOUTHWEST MISSOURI...

CITY           SKY/WX    TMP DP  RH WIND       PRES   REMARKS
SPRINGFIELD    CLOUDY    58  43  57 NW12      30.01S
JOPLIN         PTSUNNY   61  43  51 NW7       30.03F

$$
MOZ032>034-039>042-045>050-055>058-069>072-292300-
...CENTRAL MISSOURI...

CITY           SKY/WX    TMP DP  RH WIND       PRES   REMARKS
COLUMBIA       CLOUDY    58  41  53 W13       29.98S
JEFFERSON CITY PTSUNNY   59  39  47 W15       29.98S
ROLLA          PTSUNNY   55  39  54 W15       29.96F
SEDALIA        CLOUDY    62  42  47 W9        29.98F
WHITEMAN AFB   CLOUDY    63  42  45 NW12G21   29.96F
WARRENSBURG    CLOUDY    66  41  39 W9        29.97F
OSAGE BEACH    PTSUNNY   61  39  44 W10       29.99F

$$
MOZ051-052-059>065-292300-
...EAST CENTRAL MISSOURI...

CITY           SKY/WX    TMP DP  RH WIND       PRES   REMARKS
ST LOUIS INTL  CLOUDY    57  44  62 W12       29.95F
SPIRIT OF STL  CLOUDY    56  42  59 W12       29.95S
ST CHARLES     CLOUDY    57  40  52 W15G23    29.94F

$$
MOZ072>076-082>087-097>100-106>115-292300-
...SOUTH CENTRAL AND SOUTHEAST MISSOURI...

CITY           SKY/WX    TMP DP  RH WIND       PRES   REMARKS
CAPE GIRARDEAU CLOUDY    56  45  66 SW17G25   30.01S
FARMINGTON     PTSUNNY   55  39  54 SW9       30.01S
POPLAR BLUFF   PTSUNNY   58  45  62 SW16      30.00F
WEST PLAINS    PTSUNNY   62  42  47 W7        30.00S

$$



USA.gov is the U.S. government's official web portal to all federal, state and local government web resources and services.